Weather History for Huntington, WV

Change the Weather History Date:

Wednesday, July 17, 2013

  Actual Average Record
Temperature  
Mean Temperature 84 °F 76 °F  
Max Temperature 95 °F 86 °F 100 °F (1988)
Min Temperature 73 °F 66 °F 52 °F (1954)
Degree Days  
Heating Degree Days 0 0  
Month to date heating degree days 0 0  
Since 1 June heating degree days 0 12  
Since 1 July heating degree days 0 0  
Cooling Degree Days 19 11  
Month to date cooling degree days 207 184  
Year to date cooling degree days 634 522  
Since 1 June cooling degree days 464 409  
Growing Degree Days 34 (Base 50)    
Moisture  
Dew Point 73 °F    
Average Humidity 72    
Maximum Humidity 94    
Minimum Humidity 49    
Precipitation  
Precipitation 0.17 in 0.16 in 1.14 in (1910)
Month to date precipitation 5.69 2.42  
Year to date precipitation 25.03 24.38  
Snow  
Snow 0.00 in - - ()
Month to date snowfall 0.0  
Since 1 September snowfall 12.4  
Snow Depth 0.00 in    
Sea Level Pressure  
Sea Level Pressure 30.23 in    
Wind  
Wind Speed 3 mph (NNW)    
Max Wind Speed 16 mph    
Max Gust Speed 25 mph    
Visibility 8 miles    
Events Rain , Thunderstorm    
T = Trace of Precipitation, MM = Missing Value Source: NWS Daily Summary

Daily Weather History Graph

Daily Weather History Graph

Search for Another Location

Airport:

Trip Planner

Search our weather history database for the weather conditions in past years. The results will help you decide how hot, cold, wet, or windy it might be!

Date:

Astronomy

Jul. 17, 2013 Rise Set
Actual Time 6:20 AM EDT 8:52 PM EDT
Civil Twilight 5:49 AM EDT 9:22 PM EDT
Nautical Twilight 5:11 AM EDT 10:00 PM EDT
Astronomical Twilight 4:29 AM EDT 10:42 PM EDT
Moon 3:40 PM EDT (7/17) 1:24 AM EDT (7/17)
Length of Visible Light 15h 32m
Length of Day
14h 31m
Waxing Gibbous, 67% of the Moon is Illuminated
Jul 17
Waxing Gibbous
Jul 22
Full
Jul 29
Last Quarter
Aug 6
New
Aug 14
First Quarter

Hourly Weather History & Observations

Time (EDT) Temp. Heat Index Dew Point Humidity Pressure Visibility Wind Dir Wind Speed Gust Speed Precip Events Conditions
12:51 AM 75.9 °F - 73.0 °F 91% 30.26 in 8.0 mi Calm Calm - N/A   Clear
1:51 AM 75.0 °F - 72.0 °F 90% 30.25 in 8.0 mi Calm Calm - N/A   Clear
2:51 AM 75.0 °F - 72.0 °F 90% 30.25 in 7.0 mi Calm Calm - N/A   Clear
3:51 AM 73.0 °F - 71.1 °F 93% 30.25 in 10.0 mi Calm Calm - N/A   Partly Cloudy
4:51 AM 73.0 °F - 72.0 °F 96% 30.25 in 9.0 mi Calm Calm - N/A   Partly Cloudy
5:51 AM 73.9 °F - 72.0 °F 93% 30.27 in 9.0 mi SSW 3.5 mph - N/A   Partly Cloudy
6:51 AM 73.0 °F - 71.1 °F 93% 30.28 in 9.0 mi Calm Calm - N/A   Clear
7:51 AM 77.0 °F - 73.0 °F 88% 30.28 in 10.0 mi Calm Calm - N/A   Clear
8:51 AM 81.0 °F 86.2 °F 73.9 °F 79% 30.30 in 10.0 mi Calm Calm - N/A   Partly Cloudy
9:51 AM 84.0 °F 91.9 °F 75.0 °F 74% 30.30 in 10.0 mi ENE 3.5 mph - N/A   Scattered Clouds
10:51 AM 88.0 °F 97.5 °F 75.0 °F 65% 30.29 in 10.0 mi Variable 3.5 mph - N/A   Partly Cloudy
11:51 AM 91.0 °F 100.4 °F 73.9 °F 57% 30.28 in 10.0 mi Variable 6.9 mph - N/A   Clear
12:51 PM 91.9 °F 99.5 °F 72.0 °F 52% 30.27 in 10.0 mi NE 6.9 mph - N/A   Clear
1:51 PM 93.0 °F 101.9 °F 73.0 °F 52% 30.25 in 10.0 mi NNE 4.6 mph - N/A   Partly Cloudy
2:51 PM 93.9 °F 102.1 °F 72.0 °F 49% 30.23 in 10.0 mi Variable 5.8 mph - N/A   Scattered Clouds
3:51 PM 93.0 °F 100.7 °F 72.0 °F 50% 30.20 in 10.0 mi NE 4.6 mph - N/A   Partly Cloudy
4:51 PM 91.9 °F 99.5 °F 72.0 °F 52% 30.17 in 10.0 mi NE 5.8 mph - N/A   Scattered Clouds
5:51 PM 91.9 °F 100.7 °F 73.0 °F 54% 30.17 in 10.0 mi NNE 3.5 mph - N/A   Clear
6:51 PM 88.0 °F 98.5 °F 75.9 °F 67% 30.17 in 10.0 mi WNW 5.8 mph - N/A   Clear
7:35 PM 84.2 °F 96.1 °F 78.8 °F 84% 30.21 in 10.0 mi NW 4.6 mph - 0.01 in Thunderstorm Thunderstorm
7:37 PM 84.2 °F 96.1 °F 78.8 °F 84% 30.21 in 1.8 mi WNW 5.8 mph - 0.01 in Rain , Thunderstorm Light Thunderstorms and Rain
7:51 PM 80.1 °F 83.2 °F 70.0 °F 71% 30.18 in 1.0 mi WNW 13.8 mph 25.3 mph 0.12 in Rain , Thunderstorm Heavy Thunderstorms and Rain
7:59 PM 78.8 °F - 71.6 °F 78% 30.21 in 3.0 mi Variable 6.9 mph 16.1 mph 0.05 in Rain , Thunderstorm Light Thunderstorms and Rain
8:13 PM 80.6 °F 85.4 °F 73.4 °F 79% 30.21 in 10.0 mi NNW 4.6 mph - 0.05 in Thunderstorm Thunderstorm
8:27 PM 78.8 °F - 75.2 °F 89% 30.20 in 9.0 mi Calm Calm - 0.05 in Thunderstorm Thunderstorm
8:51 PM 78.1 °F - 73.0 °F 84% 30.17 in 8.0 mi Calm Calm - N/A   Scattered Clouds
9:51 PM 75.9 °F - 73.9 °F 94% 30.20 in 8.0 mi SSW 5.8 mph - N/A   Clear
10:51 PM 75.9 °F - 73.9 °F 94% 30.20 in 6.0 mi SSW 3.5 mph - N/A   Clear
11:51 PM 75.9 °F - 73.9 °F 94% 30.20 in 3.0 mi Calm Calm - N/A   Clear
11:59 PM 75.2 °F - 73.4 °F 94% 30.22 in 2.5 mi Calm Calm - N/A   Clear